Time,TemperatureF,DewpointF,PressureIn,WindDirection,WindDirectionDegrees,WindSpeedMPH,WindSpeedGustMPH,Humidity,HourlyPrecipIn,Conditions,Clouds,dailyrainin,SoftwareType,DateUTC
2013-09-02 00:00:00,64.4,57.8,29.91,NNW,348,0.0,6.0,79,0.00,,---,0.00,VWS V14.01,2013-09-02 05:00:00,
2013-09-02 00:05:00,64.4,57.8,29.91,NNW,348,0.0,6.0,79,0.00,,---,0.00,VWS V14.01,2013-09-02 05:05:00,
2013-09-02 00:30:00,65.6,57.8,29.91,North,355,0.0,3.0,76,0.00,,---,0.07,VWS V14.01,2013-09-02 05:30:00,
2013-09-02 00:35:00,63.4,57.5,29.92,NW,313,3.0,12.0,81,0.00,,---,0.00,VWS V14.01,2013-09-02 05:35:00,
2013-09-02 01:00:00,64.4,57.8,29.91,NNW,348,0.0,6.0,79,0.00,,---,0.00,VWS V14.01,2013-09-02 06:00:00,
2013-09-02 01:05:00,62.9,57.3,29.92,North,351,0.0,9.0,82,0.00,,---,0.00,VWS V14.01,2013-09-02 06:05:00,
2013-09-02 01:30:00,63.4,57.5,29.92,NW,313,3.0,12.0,81,0.00,,---,0.00,VWS V14.01,2013-09-02 06:30:00,
2013-09-02 01:35:00,62.0,57.1,29.93,NNW,332,0.0,12.0,84,0.00,,---,0.00,VWS V14.01,2013-09-02 06:35:00,
2013-09-02 02:00:00,62.9,57.3,29.92,North,351,0.0,9.0,82,0.00,,---,0.00,VWS V14.01,2013-09-02 07:00:00,
2013-09-02 02:05:00,61.2,57.0,29.92,West,281,0.0,15.0,86,0.00,,---,0.00,VWS V14.01,2013-09-02 07:05:00,
2013-09-02 02:30:00,62.0,57.1,29.93,NNW,332,0.0,12.0,84,0.00,,---,0.00,VWS V14.01,2013-09-02 07:30:00,
2013-09-02 02:35:00,60.5,56.6,29.92,NNW,331,0.0,12.0,87,0.00,,---,0.00,VWS V14.01,2013-09-02 07:35:00,
2013-09-02 03:00:00,61.2,57.0,29.92,West,281,0.0,15.0,86,0.00,,---,0.00,VWS V14.01,2013-09-02 08:00:00,
2013-09-02 03:05:00,59.7,56.2,29.93,NW,326,0.0,9.0,88,0.00,,---,0.00,VWS V14.01,2013-09-02 08:05:00,
2013-09-02 03:30:00,60.5,56.6,29.92,NNW,331,0.0,12.0,87,0.00,,---,0.00,VWS V14.01,2013-09-02 08:30:00,
2013-09-02 03:35:00,58.9,56.0,29.93,WNW,300,0.0,9.0,90,0.00,,---,0.00,VWS V14.01,2013-09-02 08:35:00,
2013-09-02 04:00:00,59.7,56.2,29.93,NW,326,0.0,9.0,88,0.00,,---,0.00,VWS V14.01,2013-09-02 09:00:00,
2013-09-02 04:05:00,58.4,55.5,29.94,WNW,300,0.0,6.0,90,0.00,,---,0.00,VWS V14.01,2013-09-02 09:05:00,
2013-09-02 04:30:00,58.9,56.0,29.93,WNW,300,0.0,9.0,90,0.00,,---,0.00,VWS V14.01,2013-09-02 09:30:00,
2013-09-02 04:35:00,58.1,55.5,29.94,NW,311,0.0,3.0,91,0.00,,---,0.00,VWS V14.01,2013-09-02 09:35:00,
2013-09-02 05:00:00,58.4,55.5,29.94,WNW,300,0.0,6.0,90,0.00,,---,0.00,VWS V14.01,2013-09-02 10:00:00,
2013-09-02 05:05:00,57.6,55.0,29.95,NW,311,0.0,3.0,91,0.00,,---,0.00,VWS V14.01,2013-09-02 10:05:00,
2013-09-02 05:30:00,58.1,55.5,29.94,NW,311,0.0,3.0,91,0.00,,---,0.00,VWS V14.01,2013-09-02 10:30:00,
2013-09-02 05:35:00,56.8,54.5,29.95,NW,311,0.0,3.0,92,0.00,,---,0.00,VWS V14.01,2013-09-02 10:35:00,
2013-09-02 06:00:00,57.6,55.0,29.95,NW,311,0.0,3.0,91,0.00,,---,0.00,VWS V14.01,2013-09-02 11:00:00,
2013-09-02 06:05:00,56.3,54.3,29.96,NW,311,0.0,0.0,93,0.00,,---,0.00,VWS V14.01,2013-09-02 11:05:00,
2013-09-02 06:30:00,56.8,54.5,29.95,NW,311,0.0,3.0,92,0.00,,---,0.00,VWS V14.01,2013-09-02 11:30:00,
2013-09-02 06:35:00,56.2,54.5,29.97,NW,311,3.0,6.0,94,0.00,,---,0.00,VWS V14.01,2013-09-02 11:35:00,
2013-09-02 07:00:00,56.3,54.3,29.96,NW,311,0.0,0.0,93,0.00,,---,0.00,VWS V14.01,2013-09-02 12:00:00,
2013-09-02 07:05:00,55.8,53.8,29.99,NW,311,0.0,3.0,93,0.00,,---,0.00,VWS V14.01,2013-09-02 12:05:00,
2013-09-02 07:30:00,56.2,54.5,29.97,NW,311,3.0,6.0,94,0.00,,---,0.00,VWS V14.01,2013-09-02 12:30:00,
2013-09-02 07:35:00,56.4,54.4,29.99,NW,311,0.0,6.0,93,0.00,,---,0.00,VWS V14.01,2013-09-02 12:35:00,
2013-09-02 08:00:00,55.8,53.8,29.99,NW,311,0.0,3.0,93,0.00,,---,0.00,VWS V14.01,2013-09-02 13:00:00,
2013-09-02 08:05:00,57.6,55.0,30.00,WNW,300,3.0,9.0,91,0.00,,---,0.00,VWS V14.01,2013-09-02 13:05:00,
2013-09-02 08:30:00,56.4,54.4,29.99,NW,311,0.0,6.0,93,0.00,,---,0.00,VWS V14.01,2013-09-02 13:30:00,
2013-09-02 08:35:00,59.1,55.9,30.00,NNE,24,3.0,12.0,89,0.00,,---,0.00,VWS V14.01,2013-09-02 13:35:00,
2013-09-02 09:00:00,57.6,55.0,30.00,WNW,300,3.0,9.0,91,0.00,,---,0.00,VWS V14.01,2013-09-02 14:00:00,
2013-09-02 09:05:00,60.7,56.5,30.01,North,11,6.0,15.0,86,0.00,,---,0.00,VWS V14.01,2013-09-02 14:05:00,
2013-09-02 09:30:00,59.1,55.9,30.00,NNE,24,3.0,12.0,89,0.00,,---,0.00,VWS V14.01,2013-09-02 14:30:00,
2013-09-02 09:35:00,62.9,57.3,30.02,NNE,30,6.0,12.0,82,0.00,,---,0.00,VWS V14.01,2013-09-02 14:35:00,
2013-09-02 10:00:00,60.7,56.5,30.01,North,11,6.0,15.0,86,0.00,,---,0.00,VWS V14.01,2013-09-02 15:00:00,
2013-09-02 10:05:00,65.8,58.4,30.02,NW,326,3.0,12.0,77,0.00,,---,0.00,VWS V14.01,2013-09-02 15:05:00,
2013-09-02 10:30:00,62.9,57.3,30.02,NNE,30,6.0,12.0,82,0.00,,---,0.00,VWS V14.01,2013-09-02 15:30:00,
2013-09-02 10:35:00,68.0,58.7,30.01,NNE,18,6.0,15.0,72,0.00,,---,0.00,VWS V14.01,2013-09-02 15:35:00,
2013-09-02 11:00:00,65.8,58.4,30.02,NW,326,3.0,12.0,77,0.00,,---,0.00,VWS V14.01,2013-09-02 16:00:00,
2013-09-02 11:05:00,69.2,58.2,30.02,NNE,15,0.0,18.0,68,0.00,,---,0.00,VWS V14.01,2013-09-02 16:05:00,
2013-09-02 11:30:00,68.0,58.7,30.01,NNE,18,6.0,15.0,72,0.00,,---,0.00,VWS V14.01,2013-09-02 16:30:00,
2013-09-02 11:35:00,70.3,58.0,30.02,North,355,6.0,15.0,65,0.00,,---,0.00,VWS V14.01,2013-09-02 16:35:00,
2013-09-02 12:00:00,69.2,58.2,30.02,NNE,15,0.0,18.0,68,0.00,,---,0.00,VWS V14.01,2013-09-02 17:00:00,
2013-09-02 12:05:00,72.2,57.6,30.01,North,5,0.0,21.0,60,0.00,,---,0.00,VWS V14.01,2013-09-02 17:05:00,
2013-09-02 12:30:00,70.3,58.0,30.02,North,355,6.0,15.0,65,0.00,,---,0.00,VWS V14.01,2013-09-02 17:30:00,
2013-09-02 12:35:00,73.3,57.7,30.01,NNE,22,6.0,24.0,58,0.00,,---,0.00,VWS V14.01,2013-09-02 17:35:00,
2013-09-02 13:00:00,72.2,57.6,30.01,North,5,0.0,21.0,60,0.00,,---,0.00,VWS V14.01,2013-09-02 18:00:00,
2013-09-02 13:05:00,74.2,56.0,30.01,NNE,26,0.0,30.0,53,0.00,,---,0.00,VWS V14.01,2013-09-02 18:05:00,
2013-09-02 13:30:00,73.3,57.7,30.01,NNE,22,6.0,24.0,58,0.00,,---,0.00,VWS V14.01,2013-09-02 18:30:00,
2013-09-02 13:35:00,75.7,55.8,30.00,WNW,302,6.0,24.0,50,0.00,,---,0.00,VWS V14.01,2013-09-02 18:35:00,
2013-09-02 14:00:00,74.2,56.0,30.01,NNE,26,0.0,30.0,53,0.00,,---,0.00,VWS V14.01,2013-09-02 19:00:00,
2013-09-02 14:05:00,76.2,55.1,29.99,NE,49,3.0,24.0,48,0.00,,---,0.00,VWS V14.01,2013-09-02 19:05:00,
2013-09-02 14:30:00,75.7,55.8,30.00,WNW,302,6.0,24.0,50,0.00,,---,0.00,VWS V14.01,2013-09-02 19:30:00,
2013-09-02 14:35:00,77.3,54.3,29.98,NNE,29,12.0,24.0,45,0.00,,---,0.00,VWS V14.01,2013-09-02 19:35:00,
2013-09-02 15:00:00,76.2,55.1,29.99,NE,49,3.0,24.0,48,0.00,,---,0.00,VWS V14.01,2013-09-02 20:00:00,
2013-09-02 15:05:00,78.4,52.8,29.97,WNW,292,6.0,18.0,41,0.00,,---,0.00,VWS V14.01,2013-09-02 20:05:00,
2013-09-02 15:30:00,77.3,54.3,29.98,NNE,29,12.0,24.0,45,0.00,,---,0.00,VWS V14.01,2013-09-02 20:30:00,
2013-09-02 15:35:00,78.3,53.3,29.97,NW,320,12.0,18.0,42,0.00,,---,0.00,VWS V14.01,2013-09-02 20:35:00,
2013-09-02 16:00:00,78.4,52.8,29.97,WNW,292,6.0,18.0,41,0.00,,---,0.00,VWS V14.01,2013-09-02 21:00:00,
2013-09-02 16:05:00,79.4,53.0,29.96,North,5,9.0,21.0,40,0.00,,---,0.00,VWS V14.01,2013-09-02 21:05:00,
2013-09-02 16:30:00,78.3,53.3,29.97,NW,320,12.0,18.0,42,0.00,,---,0.00,VWS V14.01,2013-09-02 21:30:00,
2013-09-02 16:35:00,79.5,53.1,29.96,NE,52,6.0,21.0,40,0.00,,---,0.00,VWS V14.01,2013-09-02 21:35:00,
2013-09-02 17:00:00,79.4,53.0,29.96,North,5,9.0,21.0,40,0.00,,---,0.00,VWS V14.01,2013-09-02 22:00:00,
2013-09-02 17:05:00,80.3,52.4,29.96,NNW,331,6.0,15.0,38,0.00,,---,0.00,VWS V14.01,2013-09-02 22:05:00,
2013-09-02 17:30:00,79.5,53.1,29.96,NE,52,6.0,21.0,40,0.00,,---,0.00,VWS V14.01,2013-09-02 22:30:00,
2013-09-02 17:35:00,79.3,52.2,29.96,North,355,0.0,15.0,39,0.00,,---,0.00,VWS V14.01,2013-09-02 22:35:00,
2013-09-02 18:00:00,80.3,52.4,29.96,NNW,331,6.0,15.0,38,0.00,,---,0.00,VWS V14.01,2013-09-02 23:00:00,
2013-09-02 18:05:00,78.0,51.1,29.96,NNE,16,0.0,15.0,39,0.00,,---,0.00,VWS V14.01,2013-09-02 23:05:00,
2013-09-02 18:30:00,79.3,52.2,29.96,North,355,0.0,15.0,39,0.00,,---,0.00,VWS V14.01,2013-09-02 23:30:00,
2013-09-02 18:35:00,76.9,50.8,29.97,NE,37,6.0,12.0,40,0.00,,---,0.00,VWS V14.01,2013-09-02 23:35:00,
2013-09-02 19:00:00,78.0,51.1,29.96,NNE,16,0.0,15.0,39,0.00,,---,0.00,VWS V14.01,2013-09-03 00:00:00,
2013-09-02 19:05:00,74.7,50.7,29.96,NE,39,0.0,15.0,43,0.00,,---,0.00,VWS V14.01,2013-09-03 00:05:00,
2013-09-02 19:30:00,76.9,50.8,29.97,NE,37,6.0,12.0,40,0.00,,---,0.00,VWS V14.01,2013-09-03 00:30:00,
2013-09-02 19:35:00,72.6,51.8,29.97,NE,39,3.0,6.0,48,0.00,,---,0.00,VWS V14.01,2013-09-03 00:35:00,
2013-09-02 20:00:00,74.7,50.7,29.96,NE,39,0.0,15.0,43,0.00,,---,0.00,VWS V14.01,2013-09-03 01:00:00,
2013-09-02 20:05:00,70.3,51.9,29.97,NE,39,0.0,3.0,52,0.00,,---,0.00,VWS V14.01,2013-09-03 01:05:00,
2013-09-02 20:30:00,72.6,51.8,29.97,NE,39,3.0,6.0,48,0.00,,---,0.00,VWS V14.01,2013-09-03 01:30:00,
2013-09-02 20:35:00,68.6,52.3,29.97,NE,39,0.0,6.0,56,0.00,,---,0.00,VWS V14.01,2013-09-03 01:35:00,
2013-09-02 21:00:00,70.3,51.9,29.97,NE,39,0.0,3.0,52,0.00,,---,0.00,VWS V14.01,2013-09-03 02:00:00,
2013-09-02 21:05:00,66.9,52.6,29.98,NE,39,0.0,3.0,60,0.00,,---,0.00,VWS V14.01,2013-09-03 02:05:00,
2013-09-02 21:30:00,68.6,52.3,29.97,NE,39,0.0,6.0,56,0.00,,---,0.00,VWS V14.01,2013-09-03 02:30:00,
2013-09-02 21:35:00,65.6,53.1,29.99,NE,39,0.0,3.0,64,0.00,,---,0.00,VWS V14.01,2013-09-03 02:35:00,
2013-09-02 22:00:00,66.9,52.6,29.98,NE,39,0.0,3.0,60,0.00,,---,0.00,VWS V14.01,2013-09-03 03:00:00,
2013-09-02 22:05:00,63.9,53.1,29.99,NE,39,0.0,0.0,68,0.00,,---,0.00,VWS V14.01,2013-09-03 03:05:00,
2013-09-02 22:30:00,65.6,53.1,29.99,NE,39,0.0,3.0,64,0.00,,---,0.00,VWS V14.01,2013-09-03 03:30:00,
2013-09-02 22:35:00,62.3,53.5,30.00,NE,39,0.0,0.0,73,0.00,,---,0.00,VWS V14.01,2013-09-03 03:35:00,
2013-09-02 23:00:00,63.9,53.2,29.99,NE,39,0.0,0.0,68,0.00,,---,0.00,VWS V14.01,2013-09-03 04:00:00,
2013-09-02 23:05:00,61.8,53.8,30.01,NE,39,0.0,6.0,75,0.00,,---,0.00,VWS V14.01,2013-09-03 04:05:00,
2013-09-02 23:30:00,62.3,53.5,30.00,NE,39,0.0,0.0,73,0.00,,---,0.00,VWS V14.01,2013-09-03 04:30:00,
2013-09-02 23:35:00,61.6,54.3,30.01,NE,41,3.0,9.0,77,0.00,,---,0.00,VWS V14.01,2013-09-03 04:35:00,